STARLINK-31404 (59521 NORAD) Tracking and Keplerian Element Data

This shows tracking and keplerian element data for the satellite.

Feedback or suggestion? Click here.




ElementValue
Catalog59521
NameSTARLINK-31404
Epoch Orbit795
Epoch Day159.86836088
Epoch Year2024
RAAN3.3723
Inclination43.0026
Eccentricity0.0001668
Argument of Perigee284.5702
Mean Anonmoly75.497
Mean Motion15.40710498
Decay Rate6.331E-05
L11 59521U 24073L 24159.86836088 .00006331 00000+0 15864-3 0 9995
L22 59521 43.0026 3.3723 0001668 284.5702 75.4970 15.40710498 7958



Live tracking and technical data element details for STARLINK-31404 (NORAD 59521). STARLINK-31404 can be tracked NOW for your location showing map with azimuth and elevation plus other details from your city location.







IsCatalogInMostPopularTable: catalog: 59521, numindb: 15
Update: records affected: 1



GetName: 59521 STARLINK-31404

Hit Count: updated at: Fri, 14 Jun 2024 19:10:45 GMT